Location: Iesi
(43.5167°N, 13.2333°E)
Time: 16:58:17
(UTC+00:00)

Cosmos 1814 Rocket - Pass Details

Date: 08 August 2020
Orbit: 744 x 788 km, 74.1° (Epoch: 23 September)

Event Time Altitude Azimuth Distance (km) Brightness Sun altitude
Rises 21:48:26 0° 341° (NNW) 3,217 8.5 -27.6°
Reaches altitude 10° 21:50:49 10° 344° (NNW) 2,294 7.4 -27.8°
Enters shadow 21:55:34 66° 33° (NNE) 833 4.2 -28.1°
